Petersburg, AK

11:38 AM AKDT on April 27, 2017 (GMT -0800)
Johnson Petersburg

Weather History for PAPG - June, 2014

Change the Weather History Date:

Wednesday, June 11, 2014

  Actual Average Record
Temperature  
Mean Temperature 52 °F -  
Max Temperature 62 °F 56 °F 72 °F (1992)
Min Temperature 42 °F 45 °F 34 °F (1985)
Degree Days  
Heating Degree Days 13    
Growing Degree Days 2 (Base 50)    
Moisture  
Dew Point 43 °F    
Average Humidity 68    
Maximum Humidity 93    
Minimum Humidity 45    
Precipitation  
Precipitation 0.00 in - - ()
Sea Level Pressure  
Sea Level Pressure 30.05 in    
Wind  
Wind Speed 4 mph (East)    
Max Wind Speed 8 mph    
Max Gust Speed -    
Visibility 10 miles    
Events      
Averages and records for this station are not official NWS values.
T = Trace of Precipitation, MM = Missing Value Source: NWS Daily Summary

Daily Weather History Graph

Daily Weather History Graph

Search for Another Location

Airport or City:

Trip Planner

Search our weather history database for the weather conditions in past years. The results will help you decide how hot, cold, wet, or windy it might be!

Date:

Astronomy

Jun. 11, 2014 Rise Set
Actual Time 3:59 AM AKDT 9:43 PM AKDT
Civil Twilight 2:54 AM AKDT 10:49 PM AKDT
Nautical Twilight 1:23 AM AKDT 12:19 AM AKDT
Astronomical Twilight Sun does not set Sun does not set
Moon 7:58 PM AKDT (6/11) 3:23 AM AKDT (6/11)
Length of Visible Light 19h 54m
Length of Day
17h 43m
Waxing Gibbous, 98% of the Moon is Illuminated
Jun 11
Waxing Gibbous
Jun 12
Full
Jun 19
Last Quarter
Jun 27
New
Jul 5
First Quarter

Hourly Weather History & Observations

Time (AKDT) Temp. Windchill Dew Point Humidity Pressure Visibility Wind Dir Wind Speed Gust Speed Precip Events Conditions
12:16 AM 46.4 °F 45.2 °F 42.8 °F 87% 30.09 in 10.0 mi SW 3.5 mph - N/A   Clear
12:36 AM 46.4 °F 44.3 °F 42.8 °F 87% 30.10 in 10.0 mi SSW 4.6 mph - N/A   Clear
12:56 AM 46.4 °F - 42.8 °F 87% 30.09 in 10.0 mi Calm Calm - N/A   Clear
1:16 AM 44.6 °F 42.2 °F 42.8 °F 93% 30.09 in 10.0 mi SW 4.6 mph - N/A   Clear
1:36 AM 46.4 °F 45.2 °F 42.8 °F 87% 30.09 in 10.0 mi SW 3.5 mph - N/A   Clear
1:56 AM 44.6 °F 43.1 °F 41.0 °F 87% 30.08 in 10.0 mi SW 3.5 mph - N/A   Clear
2:16 AM 44.6 °F 42.2 °F 41.0 °F 87% 30.08 in 10.0 mi SW 4.6 mph - N/A   Clear
2:36 AM 44.6 °F 42.2 °F 41.0 °F 87% 30.08 in 10.0 mi SW 4.6 mph - N/A   Clear
2:56 AM 44.6 °F 42.2 °F 42.8 °F 93% 30.08 in 10.0 mi WSW 4.6 mph - N/A   Clear
3:16 AM 44.6 °F 43.1 °F 41.0 °F 87% 30.08 in 10.0 mi SW 3.5 mph - N/A   Clear
3:36 AM 42.8 °F 40.1 °F 39.2 °F 87% 30.08 in 10.0 mi SW 4.6 mph - N/A   Clear
4:36 AM 42.8 °F 41.1 °F 39.2 °F 87% 30.08 in 10.0 mi SW 3.5 mph - N/A   Clear
5:55 AM 44.6 °F 43.1 °F 42.8 °F 93% 30.09 in 10.0 mi SW 3.5 mph - N/A   Partly Cloudy
6:36 AM 46.4 °F 44.3 °F 42.8 °F 87% 30.08 in 10.0 mi West 4.6 mph - N/A   Partly Cloudy
6:55 AM 48.2 °F - 44.6 °F 87% 30.08 in 10.0 mi Calm Calm - N/A   Scattered Clouds
7:16 AM 48.2 °F - 44.6 °F 87% 30.08 in 10.0 mi Calm Calm - N/A   Scattered Clouds
7:56 AM 51.8 °F - 44.6 °F 76% 30.08 in 10.0 mi NE 3.5 mph - N/A   Scattered Clouds
8:16 AM 51.8 °F - 44.6 °F 76% 30.08 in 10.0 mi NE 3.5 mph - N/A   Scattered Clouds
8:36 AM 51.8 °F - 44.6 °F 76% 30.08 in 10.0 mi ENE 5.8 mph - N/A   Scattered Clouds
8:55 AM 51.8 °F - 44.6 °F 76% 30.08 in 10.0 mi North 4.6 mph - N/A   Partly Cloudy
9:36 AM 53.6 °F - 44.6 °F 72% 30.07 in 10.0 mi NE 4.6 mph - N/A   Partly Cloudy
9:56 AM 53.6 °F - 44.6 °F 72% 30.07 in 10.0 mi NE 6.9 mph - N/A   Scattered Clouds
10:36 AM 55.4 °F - 44.6 °F 67% 30.06 in 10.0 mi NE 8.1 mph - N/A   Scattered Clouds
10:56 AM 55.4 °F - 44.6 °F 67% 30.07 in 10.0 mi NE 8.1 mph - N/A   Scattered Clouds
11:36 AM 57.2 °F - 46.4 °F 67% 30.06 in 10.0 mi East 8.1 mph - N/A   Scattered Clouds
11:56 AM 57.2 °F - 46.4 °F 67% 30.06 in 10.0 mi ENE 8.1 mph - N/A   Scattered Clouds
12:16 PM 59.0 °F - 48.2 °F 67% 30.06 in 10.0 mi ENE 5.8 mph - N/A   Scattered Clouds
12:55 PM 59.0 °F - 46.4 °F 63% 30.05 in 10.0 mi ENE 5.8 mph - N/A   Scattered Clouds
1:16 PM 60.8 °F - 46.4 °F 59% 30.05 in 10.0 mi East 4.6 mph - N/A   Scattered Clouds
1:36 PM 60.8 °F - 44.6 °F 55% 30.05 in 10.0 mi ENE 5.8 mph - N/A   Scattered Clouds
1:55 PM 60.8 °F - 46.4 °F 59% 30.04 in 10.0 mi NNE 6.9 mph - N/A   Scattered Clouds
1:56 PM 60.8 °F - 44.6 °F 55% 30.04 in 10.0 mi ENE 8.1 mph - N/A   Scattered Clouds
2:36 PM 62.6 °F - 42.8 °F 48% 30.04 in 10.0 mi ENE 5.8 mph - N/A   Scattered Clouds
2:54 PM 62.6 °F - 42.8 °F 48% 30.04 in 10.0 mi NE 6.9 mph - N/A   Scattered Clouds
3:16 PM 62.6 °F - 42.8 °F 48% 30.03 in 10.0 mi NE 4.6 mph - N/A   Scattered Clouds
3:56 PM 62.6 °F - 42.8 °F 48% 30.03 in 10.0 mi East 5.8 mph - N/A   Scattered Clouds
4:16 PM 62.6 °F - 42.8 °F 48% 30.02 in 10.0 mi East 5.8 mph - N/A   Scattered Clouds
4:36 PM 60.8 °F - 42.8 °F 52% 30.02 in 10.0 mi East 4.6 mph - N/A   Scattered Clouds
4:56 PM 60.8 °F - 41.0 °F 48% 30.02 in 10.0 mi East 5.8 mph - N/A   Scattered Clouds
5:36 PM 62.6 °F - 41.0 °F 45% 30.01 in 10.0 mi East 3.5 mph - N/A   Scattered Clouds
5:56 PM 60.8 °F - 41.0 °F 48% 30.01 in 10.0 mi East 5.8 mph - N/A   Scattered Clouds
6:36 PM 59.0 °F - 42.8 °F 55% 30.00 in 10.0 mi ENE 5.8 mph - N/A   Scattered Clouds
6:56 PM 59.0 °F - 41.0 °F 51% 30.00 in 10.0 mi East 4.6 mph - N/A   Scattered Clouds
7:36 PM 60.8 °F - 42.8 °F 52% 30.00 in 10.0 mi ENE 5.8 mph - N/A   Scattered Clouds
7:56 PM 59.0 °F - 42.8 °F 55% 30.00 in 10.0 mi East 5.8 mph - N/A   Partly Cloudy
8:16 PM 57.2 °F - 41.0 °F 55% 30.00 in 10.0 mi East 6.9 mph - N/A   Partly Cloudy
8:56 PM 57.2 °F - 41.0 °F 55% 30.00 in 10.0 mi SE 4.6 mph - N/A   Partly Cloudy
9:16 PM 55.4 °F - 39.2 °F 54% 30.00 in 10.0 mi ESE 5.8 mph - N/A   Partly Cloudy
9:56 PM 51.8 °F - 41.0 °F 67% 30.00 in 10.0 mi Calm Calm - N/A   Partly Cloudy
10:16 PM 53.6 °F - 39.2 °F 58% 30.00 in 10.0 mi WSW 4.6 mph - N/A   Clear
10:36 PM 53.6 °F - 39.2 °F 58% 30.00 in 10.0 mi WSW 6.9 mph - N/A   Clear
10:56 PM 53.6 °F - 39.2 °F 58% 30.00 in 10.0 mi West 3.5 mph - N/A   Clear
11:56 PM 51.8 °F - 39.2 °F 62% 30.00 in 10.0 mi Calm Calm - N/A   Clear